When you browse on this site, cookies collect data to enhance your experience and personalize the content and advertising you see.
Visit our Privacy Policy to learn more. By continuing to use the site, you agree to this use of cookies and data.
  • In Spain
  • List of Countries
  • For 7 days
  • Water Temperature
  • Satellite Maps
  • Weather Map
  • Weather Widgets
  • user-avatar
    Login

    Hourly Weather Al-Kunajtira

    Today, 22 April, Monday

    Time Temperature Precipitation Wind Pressure Humidity
    00:00 +7°C° 0 mm 3 mps 731 mmHg 70%
    01:00 +7°C° 0 mm 3 mps 731 mmHg 70%
    02:00 +7°C° 0 mm 4 mps 730 mmHg 70%
    03:00 +7°C° 0 mm 3 mps 731 mmHg 71%
    04:00 +7°C° 0 mm 2 mps 731 mmHg 73%
    05:00 +7°C° 0 mm 2 mps 731 mmHg 74%
    06:00 +9°C° 0 mm 2 mps 731 mmHg 66%
    07:00 +11°C° 0 mm 3 mps 732 mmHg 59%
    08:00 +13°C° 0 mm 3 mps 731 mmHg 50%
    09:00 +14°C° 0 mm 4 mps 732 mmHg 46%
    10:00 +15°C° 0 mm 5 mps 732 mmHg 42%
    11:00 +16°C° 0 mm 6 mps 733 mmHg 38%
    12:00 +17°C° 0 mm 6 mps 733 mmHg 38%
    13:00 +17°C° 0 mm 6 mps 733 mmHg 38%
    14:00 +17°C° 0 mm 7 mps 733 mmHg 36%
    15:00 +16°C° 0 mm 7 mps 733 mmHg 41%
    16:00 +15°C° 0 mm 6 mps 734 mmHg 45%
    17:00 +14°C° 0 mm 6 mps 734 mmHg 50%
    18:00 +13°C° 0 mm 5 mps 735 mmHg 55%
    19:00 +11°C° 0 mm 4 mps 735 mmHg 60%
    20:00 +10°C° 0 mm 4 mps 736 mmHg 66%
    21:00 +9°C° 0 mm 3 mps 736 mmHg 67%
    22:00 +9°C° 0 mm 3 mps 737 mmHg 69%
    23:00 +9°C° 0 mm 3 mps 737 mmHg 70%

    Tomorrow, 23 April, Tuesday

    Time Temperature Precipitation Wind Pressure Humidity
    00:00 +9°C° 0 mm 2 mps 737 mmHg 73%
    01:00 +9°C° 0 mm 2 mps 738 mmHg 75%
    02:00 +8°C° 0 mm 2 mps 738 mmHg 78%
    03:00 +9°C° 0 mm 1 mps 738 mmHg 80%
    04:00 +9°C° 0 mm 1 mps 738 mmHg 82%
    05:00 +9°C° 0 mm 1 mps 739 mmHg 84%
    06:00 +10°C° 0 mm 2 mps 739 mmHg 75%
    07:00 +13°C° 0 mm 2 mps 740 mmHg 67%
    08:00 +15°C° 0 mm 2 mps 740 mmHg 59%
    09:00 +16°C° 0 mm 2 mps 740 mmHg 53%
    10:00 +17°C° 0 mm 3 mps 741 mmHg 47%
    11:00 +19°C° 0 mm 3 mps 741 mmHg 41%
    12:00 +19°C° 0 mm 3 mps 741 mmHg 39%
    13:00 +20°C° 0 mm 3 mps 741 mmHg 38%
    14:00 +20°C° 0 mm 4 mps 741 mmHg 36%
    15:00 +19°C° 0 mm 3 mps 741 mmHg 40%
    16:00 +19°C° 0 mm 3 mps 741 mmHg 44%
    17:00 +18°C° 0 mm 3 mps 740 mmHg 48%
    18:00 +16°C° 0 mm 2 mps 741 mmHg 50%
    19:00 +14°C° 0 mm 2 mps 741 mmHg 53%
    20:00 +13°C° 0 mm 2 mps 741 mmHg 56%
    21:00 +12°C° 0 mm 2 mps 741 mmHg 56%
    22:00 +12°C° 0 mm 1 mps 742 mmHg 55%
    23:00 +11°C° 0 mm 1 mps 742 mmHg 55%

    Day after tomorrow, 24 April, Wednesday

    Time Temperature Precipitation Wind Pressure Humidity
    00:00 +11°C° 0 mm 1 mps 742 mmHg 55%
    01:00 +11°C° 0 mm 1 mps 742 mmHg 55%
    02:00 +11°C° 0 mm 1 mps 742 mmHg 55%
    03:00 +10°C° 0 mm 1 mps 742 mmHg 56%
    04:00 +9°C° 0 mm 0 mps 742 mmHg 56%
    05:00 +9°C° 0 mm 0 mps 742 mmHg 57%
    06:00 +11°C° 0 mm 0 mps 742 mmHg 52%
    07:00 +13°C° 0 mm 0 mps 742 mmHg 47%
    08:00 +16°C° 0 mm 0 mps 743 mmHg 42%
    09:00 +17°C° 0 mm 0 mps 743 mmHg 38%
    10:00 +19°C° 0 mm 0 mps 743 mmHg 34%
    11:00 +21°C° 0 mm 0 mps 743 mmHg 30%
    12:00 +24°C° 0 mm 1 mps 742 mmHg 29%
    13:00 +24°C° 0 mm 1 mps 742 mmHg 27%
    14:00 +25°C° 0 mm 1 mps 741 mmHg 26%
    15:00 +24°C° 0 mm 1 mps 741 mmHg 31%
    16:00 +24°C° 0 mm 2 mps 741 mmHg 35%
    17:00 +23°C° 0 mm 2 mps 740 mmHg 40%
    18:00 +20°C° 0 mm 2 mps 741 mmHg 43%
    19:00 +18°C° 0 mm 2 mps 741 mmHg 47%
    20:00 +16°C° 0 mm 1 mps 741 mmHg 50%
    21:00 +16°C° 0 mm 1 mps 741 mmHg 50%
    22:00 +15°C° 0 mm 1 mps 741 mmHg 50%
    23:00 +15°C° 0 mm 1 mps 740 mmHg 49%

    25 April, Thursday

    Time Temperature Precipitation Wind Pressure Humidity
    00:00 +14°C° 0 mm 1 mps 740 mmHg 48%
    01:00 +14°C° 0 mm 1 mps 740 mmHg 47%
    02:00 +14°C° 0 mm 1 mps 739 mmHg 46%
    03:00 +14°C° 0 mm 1 mps 739 mmHg 46%
    04:00 +14°C° 0 mm 1 mps 739 mmHg 45%
    05:00 +13°C° 0 mm 1 mps 739 mmHg 44%
    06:00 +16°C° 0 mm 1 mps 740 mmHg 41%
    07:00 +19°C° 0 mm 1 mps 740 mmHg 38%
    08:00 +21°C° 0 mm 1 mps 740 mmHg 34%
    09:00 +23°C° 0 mm 1 mps 740 mmHg 33%
    10:00 +24°C° 0 mm 1 mps 740 mmHg 32%
    11:00 +26°C° 0 mm 1 mps 740 mmHg 30%
    12:00 +27°C° 0 mm 2 mps 739 mmHg 31%
    13:00 +27°C° 0 mm 2 mps 739 mmHg 32%
    14:00 +28°C° 0 mm 3 mps 738 mmHg 32%
    15:00 +27°C° 0 mm 3 mps 738 mmHg 37%
    16:00 +26°C° 0 mm 3 mps 738 mmHg 41%
    17:00 +25°C° 0 mm 3 mps 738 mmHg 46%
    18:00 +22°C° 0 mm 3 mps 738 mmHg 49%
    19:00 +20°C° 0 mm 2 mps 738 mmHg 52%
    20:00 +18°C° 0 mm 2 mps 738 mmHg 55%
    21:00 +17°C° 0 mm 2 mps 738 mmHg 54%
    22:00 +18°C° 0 mm 1 mps 738 mmHg 53%
    23:00 +16°C° 0 mm 1 mps 738 mmHg 52%

    26 April, Friday

    Time Temperature Precipitation Wind Pressure Humidity
    00:00 +16°C° 0 mm 1 mps 737 mmHg 52%
    01:00 +16°C° 0 mm 1 mps 737 mmHg 53%
    02:00 +15°C° 0 mm 1 mps 737 mmHg 53%
    03:00 +15°C° 0 mm 1 mps 736 mmHg 54%
    04:00 +15°C° 0 mm 1 mps 736 mmHg 54%
    05:00 +14°C° 0 mm 0 mps 736 mmHg 55%
    06:00 +16°C° 0 mm 0 mps 736 mmHg 51%
    07:00 +18°C° 0 mm 0 mps 737 mmHg 46%
    08:00 +20°C° 0 mm 0 mps 737 mmHg 42%
    09:00 +21°C° 0 mm 0 mps 737 mmHg 40%
    10:00 +23°C° 0 mm 0 mps 737 mmHg 38%
    11:00 +24°C° 0 mm 0 mps 737 mmHg 36%
    12:00 +25°C° 0 mm 0 mps 736 mmHg 35%
    13:00 +27°C° 0 mm 1 mps 736 mmHg 34%
    14:00 +28°C° 0 mm 1 mps 735 mmHg 33%
    15:00 +27°C° 0 mm 1 mps 735 mmHg 38%
    16:00 +27°C° 0 mm 2 mps 735 mmHg 42%
    17:00 +26°C° 0 mm 2 mps 735 mmHg 47%
    18:00 +24°C° 0 mm 2 mps 735 mmHg 51%
    19:00 +23°C° 0 mm 2 mps 735 mmHg 55%
    20:00 +21°C° 0 mm 1 mps 735 mmHg 58%
    21:00 +21°C° 0.1 mm 1 mps 735 mmHg 59%
    22:00 +20°C° 0.1 mm 1 mps 735 mmHg 59%
    23:00 +20°C° 0.1 mm 1 mps 735 mmHg 60%

    27 April, Saturday

    Time Temperature Precipitation Wind Pressure Humidity
    00:00 +19°C° 0 mm 1 mps 735 mmHg 63%
    01:00 +18°C° 0 mm 1 mps 735 mmHg 66%
    02:00 +17°C° 0 mm 2 mps 735 mmHg 69%
    03:00 +16°C° 0 mm 1 mps 735 mmHg 72%
    04:00 +16°C° 0 mm 1 mps 735 mmHg 75%
    05:00 +15°C° 0 mm 1 mps 735 mmHg 78%
    06:00 +18°C° 0 mm 1 mps 735 mmHg 72%
    07:00 +18°C° 0 mm 2 mps 736 mmHg 66%
    08:00 +20°C° 0 mm 2 mps 736 mmHg 59%
    09:00 +21°C° 0 mm 2 mps 736 mmHg 55%
    10:00 +24°C° 0 mm 2 mps 736 mmHg 50%
    11:00 +25°C° 0 mm 3 mps 736 mmHg 46%
    12:00 +26°C° 0.1 mm 3 mps 735 mmHg 43%
    13:00 +26°C° 0.1 mm 3 mps 735 mmHg 40%
    14:00 +27°C° 0.1 mm 3 mps 735 mmHg 37%
    15:00 +27°C° 0 mm 2 mps 735 mmHg 39%
    16:00 +26°C° 0 mm 2 mps 735 mmHg 41%
    17:00 +26°C° 0 mm 2 mps 735 mmHg 43%
    18:00 +24°C° 0 mm 2 mps 735 mmHg 47%
    19:00 +23°C° 0 mm 2 mps 736 mmHg 51%
    20:00 +20°C° 0 mm 2 mps 736 mmHg 55%
    21:00 +19°C° 0 mm 2 mps 736 mmHg 57%
    22:00 +19°C° 0 mm 1 mps 736 mmHg 60%
    23:00 +19°C° 0 mm 1 mps 736 mmHg 62%
    Show more